GFSFLT2_prec_precacc_117.txt.gz
Total_Precipitation_Accumulation
0.89 0.87 0.89 0.89 0.86 0.71 0.60 0.45 0.40 0.45 0.40 0.33 0.26 0.24 0.23 0.22 0.23 0.26 0.29 0.35 0.40 0.55 0.82 1.22 1.23 1.04 1.15
1.25 1.13 0.96 0.75 0.55 0.37 0.24 0.16 0.11 0.16 0.11 0.08 0.09 0.10 0.08 0.08 0.12 0.14 0.16 0.21 0.31 0.44 0.52 0.62 0.77 0.70 0.69
0.53 0.44 0.38 0.34 0.30 0.22 0.16 0.12 0.09 0.11 0.08 0.05 0.04 0.03 0.04 0.05 0.09 0.10 0.13 0.12 0.11 0.15 0.28 0.32 0.36 0.50 0.53
0.45 0.41 0.37 0.29 0.29 0.26 0.25 0.22 0.17 0.12 0.09 0.05 0.03 0.04 0.05 0.05 0.03 0.02 0.01 0.02 0.04 0.08 0.20 0.37 0.36 0.37 0.30
0.61 0.52 0.37 0.27 0.24 0.22 0.21 0.17 0.15 0.10 0.07 0.05 0.03 0.02 0.00 0.00 0.00 0.01 0.02 0.07 0.11 0.14 0.19 0.33 0.49 0.53 0.37
0.58 0.37 0.22 0.22 0.24 0.25 0.34 0.27 0.20 0.06 0.10 0.06 0.01 0.00 0.00 0.00 0.02 0.03 0.04 0.05 0.06 0.10 0.14 0.20 0.34 0.40 0.37
0.14 0.12 0.15 0.19 0.41 0.40 0.29 0.27 0.14 0.03 0.08 0.08 0.02 0.01 0.01 0.01 0.01 0.01 0.03 0.04 0.07 0.10 0.13 0.15 0.18 0.17 0.17
0.06 0.10 0.18 0.22 0.26 0.38 0.33 0.21 0.10 0.03 0.04 0.14 0.02 0.01 0.00 0.00 0.01 0.01 0.03 0.12 0.18 0.19 0.21 0.21 0.19 0.18 0.17
0.13 0.13 0.17 0.21 0.24 0.37 0.42 0.35 0.24 0.07 0.05 0.11 0.04 0.02 0.01 0.00 0.00 0.04 0.06 0.07 0.05 0.06 0.07 0.09 0.11 0.13 0.15
0.15 0.15 0.15 0.14 0.16 0.14 0.30 0.73 0.42 0.33 0.11 0.37 0.17 0.12 0.39 0.03 0.01 0.02 0.01 0.01 0.05 0.05 0.05 0.07 0.09 0.12 0.16
0.13 0.13 0.15 0.19 0.23 0.22 0.26 0.63 0.85 0.52 0.03 0.62 0.72 0.13 0.38 0.14 0.01 0.01 0.01 0.08 0.17 0.16 0.18 0.23 0.25 0.30 0.40
0.10 0.11 0.13 0.14 0.16 0.19 0.30 0.40 0.51 0.74 0.30 0.41 1.15 0.39 0.65 0.37 0.05 0.01 0.01 0.13 0.38 0.50 0.51 0.52 0.53 0.47 0.47
0.12 0.10 0.12 0.17 0.25 0.30 0.26 0.17 0.20 0.27 0.31 0.33 0.59 0.47 0.63 0.56 0.27 0.06 0.17 0.17 0.44 0.69 0.52 0.44 0.48 0.53 0.49
0.29 0.29 0.33 0.33 0.28 0.26 0.34 0.25 0.36 0.21 0.17 0.17 0.24 0.44 0.55 0.23 0.38 0.30 0.20 0.45 0.39 0.46 0.56 0.47 0.47 0.60 0.57
0.60 0.55 0.46 0.35 0.28 0.24 0.35 0.41 0.45 0.29 0.26 0.17 0.09 0.09 0.19 0.29 0.45 0.22 0.25 0.31 0.51 0.70 0.69 0.61 0.62 0.92 0.80
0.55 0.60 0.63 0.49 0.41 0.30 0.32 0.42 0.43 0.31 0.30 0.24 0.20 0.17 0.11 0.12 0.29 0.51 0.51 0.46 0.60 0.68 0.70 0.90 0.81 0.89 0.70
0.58 0.56 0.59 0.51 0.46 0.43 0.37 0.36 0.29 0.25 0.26 0.28 0.30 0.50 0.60 0.24 0.14 0.48 1.01 0.85 0.63 0.58 0.61 0.69 0.91 1.00 0.71

GFSFLT2_prec_precacc_120.txt.gz
Total_Precipitation_Accumulation
0.89 0.88 0.90 0.90 0.88 0.73 0.62 0.48 0.43 0.47 0.41 0.33 0.26 0.24 0.23 0.22 0.23 0.26 0.29 0.35 0.40 0.55 0.82 1.22 1.23 1.04 1.16
1.25 1.13 0.96 0.75 0.56 0.38 0.25 0.17 0.12 0.18 0.13 0.09 0.09 0.10 0.08 0.08 0.12 0.14 0.16 0.21 0.31 0.44 0.52 0.62 0.77 0.71 0.71
0.54 0.44 0.38 0.34 0.31 0.24 0.18 0.14 0.10 0.14 0.11 0.07 0.05 0.04 0.04 0.05 0.09 0.10 0.13 0.12 0.11 0.15 0.28 0.32 0.36 0.50 0.54
0.45 0.41 0.37 0.30 0.31 0.29 0.28 0.25 0.21 0.17 0.13 0.08 0.06 0.06 0.06 0.05 0.03 0.02 0.01 0.02 0.04 0.08 0.20 0.37 0.36 0.37 0.30
0.61 0.52 0.37 0.27 0.25 0.24 0.25 0.22 0.22 0.17 0.16 0.12 0.09 0.05 0.02 0.02 0.00 0.01 0.02 0.07 0.11 0.14 0.19 0.33 0.49 0.54 0.37
0.58 0.38 0.22 0.22 0.25 0.28 0.39 0.38 0.34 0.16 0.19 0.14 0.09 0.08 0.04 0.02 0.02 0.03 0.04 0.05 0.06 0.10 0.14 0.20 0.34 0.40 0.37
0.14 0.13 0.16 0.20 0.44 0.44 0.34 0.35 0.26 0.10 0.16 0.16 0.07 0.05 0.03 0.03 0.03 0.02 0.03 0.04 0.07 0.10 0.13 0.15 0.18 0.17 0.17
0.07 0.11 0.19 0.23 0.29 0.44 0.42 0.34 0.25 0.15 0.12 0.21 0.05 0.03 0.02 0.03 0.02 0.01 0.03 0.12 0.18 0.19 0.21 0.21 0.19 0.18 0.17
0.13 0.14 0.19 0.26 0.30 0.46 0.54 0.49 0.41 0.20 0.17 0.26 0.13 0.07 0.03 0.03 0.01 0.04 0.06 0.07 0.05 0.06 0.07 0.09 0.11 0.13 0.15
0.15 0.15 0.16 0.16 0.23 0.20 0.36 0.83 0.59 0.50 0.29 0.64 0.44 0.35 0.56 0.10 0.04 0.02 0.01 0.01 0.05 0.05 0.05 0.07 0.09 0.12 0.16
0.13 0.13 0.16 0.21 0.27 0.29 0.32 0.72 0.97 0.66 0.17 0.87 1.04 0.51 0.74 0.32 0.06 0.01 0.01 0.08 0.17 0.16 0.18 0.23 0.25 0.30 0.40
0.11 0.12 0.14 0.17 0.21 0.31 0.41 0.54 0.65 0.90 0.45 0.54 1.25 0.51 0.83 0.51 0.11 0.01 0.01 0.13 0.38 0.50 0.51 0.52 0.53 0.47 0.47
0.13 0.10 0.12 0.20 0.33 0.41 0.34 0.26 0.29 0.39 0.47 0.48 0.75 0.58 0.70 0.61 0.30 0.06 0.17 0.17 0.44 0.69 0.52 0.44 0.48 0.53 0.49
0.30 0.29 0.35 0.35 0.33 0.35 0.44 0.34 0.45 0.31 0.33 0.38 0.53 0.67 0.68 0.31 0.41 0.30 0.20 0.45 0.39 0.46 0.56 0.47 0.47 0.60 0.57
0.61 0.57 0.50 0.40 0.32 0.30 0.42 0.48 0.51 0.34 0.36 0.35 0.30 0.30 0.33 0.37 0.48 0.22 0.25 0.31 0.51 0.70 0.69 0.61 0.62 0.92 0.80
0.55 0.61 0.65 0.53 0.45 0.35 0.37 0.49 0.48 0.37 0.37 0.34 0.37 0.35 0.25 0.15 0.30 0.51 0.51 0.46 0.60 0.68 0.70 0.90 0.81 0.89 0.70
0.59 0.56 0.59 0.52 0.49 0.46 0.41 0.40 0.34 0.30 0.32 0.33 0.38 0.62 0.74 0.33 0.16 0.48 1.01 0.85 0.63 0.58 0.61 0.69 0.91 1.00 0.71

GFSFLT2_prec_precacc_123.txt.gz
Total_Precipitation_Accumulation
0.90 0.88 0.90 0.90 0.88 0.73 0.62 0.48 0.44 0.48 0.42 0.34 0.27 0.25 0.23 0.22 0.23 0.26 0.29 0.35 0.40 0.55 0.82 1.22 1.23 1.04 1.16
1.25 1.13 0.96 0.75 0.56 0.38 0.25 0.17 0.12 0.21 0.18 0.15 0.15 0.13 0.10 0.09 0.12 0.14 0.16 0.21 0.31 0.44 0.52 0.62 0.77 0.71 0.71
0.54 0.44 0.38 0.34 0.31 0.24 0.18 0.14 0.11 0.18 0.18 0.16 0.16 0.12 0.10 0.10 0.11 0.11 0.13 0.12 0.11 0.15 0.28 0.32 0.36 0.50 0.54
0.45 0.42 0.37 0.30 0.31 0.29 0.28 0.25 0.22 0.19 0.19 0.18 0.20 0.18 0.14 0.12 0.08 0.04 0.02 0.02 0.04 0.08 0.20 0.37 0.36 0.37 0.30
0.61 0.52 0.38 0.28 0.26 0.24 0.25 0.22 0.23 0.18 0.17 0.17 0.19 0.18 0.15 0.14 0.10 0.07 0.07 0.08 0.12 0.15 0.19 0.33 0.49 0.54 0.37
0.59 0.38 0.23 0.24 0.27 0.29 0.40 0.39 0.34 0.16 0.20 0.16 0.14 0.14 0.10 0.09 0.10 0.10 0.11 0.10 0.09 0.12 0.15 0.20 0.34 0.40 0.37
0.14 0.13 0.16 0.21 0.45 0.46 0.35 0.37 0.27 0.12 0.18 0.20 0.14 0.17 0.17 0.19 0.25 0.20 0.17 0.16 0.14 0.13 0.15 0.15 0.18 0.17 0.17
0.07 0.11 0.20 0.24 0.30 0.46 0.44 0.36 0.28 0.19 0.18 0.31 0.11 0.11 0.14 0.13 0.21 0.20 0.15 0.19 0.23 0.23 0.23 0.21 0.19 0.18 0.17
0.14 0.14 0.19 0.26 0.31 0.47 0.56 0.52 0.45 0.23 0.19 0.31 0.21 0.17 0.15 0.15 0.20 0.29 0.23 0.16 0.10 0.09 0.08 0.09 0.11 0.13 0.15
0.15 0.15 0.16 0.17 0.23 0.21 0.38 0.87 0.65 0.56 0.31 0.71 0.54 0.44 0.71 0.27 0.18 0.19 0.20 0.19 0.14 0.08 0.05 0.07 0.09 0.12 0.16
0.13 0.13 0.16 0.21 0.27 0.29 0.33 0.76 1.04 0.72 0.22 0.95 1.11 0.62 0.95 0.53 0.30 0.28 0.28 0.24 0.24 0.17 0.18 0.23 0.25 0.30 0.40
0.11 0.12 0.15 0.18 0.22 0.31 0.43 0.56 0.69 0.95 0.54 0.64 1.33 0.60 1.00 0.70 0.32 0.25 0.22 0.27 0.50 0.55 0.51 0.52 0.53 0.47 0.47
0.13 0.11 0.13 0.20 0.33 0.41 0.35 0.27 0.31 0.45 0.56 0.59 0.87 0.72 0.83 0.70 0.42 0.26 0.35 0.25 0.49 0.70 0.52 0.44 0.48 0.53 0.49
0.31 0.30 0.35 0.36 0.33 0.36 0.45 0.34 0.47 0.34 0.39 0.47 0.63 0.78 0.77 0.38 0.48 0.38 0.29 0.50 0.41 0.46 0.56 0.47 0.47 0.60 0.57
0.61 0.57 0.50 0.41 0.33 0.32 0.44 0.50 0.53 0.35 0.40 0.43 0.41 0.42 0.43 0.46 0.56 0.30 0.29 0.34 0.51 0.70 0.69 0.61 0.62 0.92 0.80
0.56 0.61 0.65 0.53 0.46 0.37 0.39 0.50 0.51 0.39 0.39 0.38 0.43 0.45 0.37 0.28 0.40 0.57 0.53 0.47 0.61 0.68 0.70 0.90 0.81 0.89 0.70
0.59 0.57 0.60 0.53 0.51 0.47 0.43 0.42 0.36 0.32 0.34 0.35 0.42 0.69 0.85 0.44 0.26 0.53 1.02 0.86 0.64 0.58 0.61 0.69 0.91 1.00 0.71

GFSFLT2_prec_precacc_126.txt.gz
Total_Precipitation_Accumulation
0.92 0.89 0.91 0.90 0.88 0.73 0.62 0.48 0.44 0.48 0.42 0.35 0.28 0.26 0.24 0.23 0.24 0.27 0.30 0.35 0.40 0.55 0.82 1.22 1.23 1.04 1.16
1.26 1.14 0.96 0.75 0.56 0.38 0.25 0.17 0.12 0.21 0.18 0.15 0.16 0.16 0.13 0.14 0.18 0.19 0.21 0.25 0.34 0.46 0.53 0.62 0.77 0.71 0.71
0.54 0.44 0.39 0.34 0.31 0.24 0.18 0.14 0.11 0.18 0.18 0.16 0.17 0.14 0.12 0.13 0.16 0.17 0.21 0.18 0.15 0.17 0.29 0.32 0.36 0.50 0.54
0.45 0.42 0.37 0.30 0.31 0.30 0.28 0.25 0.22 0.19 0.20 0.18 0.20 0.19 0.17 0.15 0.11 0.08 0.06 0.07 0.08 0.11 0.22 0.38 0.36 0.37 0.30
0.61 0.53 0.38 0.28 0.26 0.25 0.26 0.22 0.23 0.19 0.17 0.17 0.19 0.18 0.16 0.18 0.15 0.13 0.12 0.16 0.23 0.25 0.27 0.38 0.51 0.55 0.38
0.59 0.39 0.23 0.24 0.27 0.30 0.40 0.39 0.35 0.16 0.20 0.17 0.14 0.14 0.10 0.10 0.15 0.16 0.17 0.19 0.22 0.25 0.24 0.26 0.36 0.41 0.38
0.14 0.13 0.16 0.21 0.46 0.47 0.36 0.37 0.28 0.13 0.19 0.21 0.15 0.18 0.17 0.19 0.30 0.30 0.30 0.34 0.40 0.37 0.32 0.27 0.24 0.19 0.18
0.07 0.11 0.20 0.24 0.30 0.46 0.45 0.37 0.29 0.19 0.18 0.32 0.12 0.12 0.15 0.14 0.26 0.33 0.35 0.43 0.49 0.47 0.45 0.41 0.32 0.26 0.22
0.14 0.14 0.19 0.26 0.31 0.48 0.57 0.53 0.46 0.23 0.19 0.32 0.22 0.19 0.16 0.16 0.25 0.46 0.47 0.39 0.32 0.27 0.21 0.19 0.20 0.19 0.16
0.15 0.15 0.16 0.17 0.23 0.22 0.39 0.89 0.68 0.58 0.31 0.73 0.56 0.47 0.72 0.27 0.19 0.21 0.31 0.34 0.33 0.27 0.21 0.15 0.14 0.16 0.17
0.13 0.13 0.16 0.21 0.28 0.29 0.34 0.77 1.06 0.74 0.25 1.00 1.14 0.62 0.96 0.54 0.30 0.31 0.37 0.43 0.47 0.40 0.35 0.36 0.31 0.33 0.41
0.11 0.12 0.15 0.18 0.22 0.31 0.43 0.56 0.71 0.97 0.55 0.67 1.36 0.63 1.05 0.73 0.33 0.28 0.31 0.39 0.63 0.74 0.71 0.62 0.58 0.50 0.47
0.13 0.11 0.13 0.20 0.33 0.41 0.35 0.27 0.31 0.45 0.57 0.60 0.89 0.75 0.87 0.73 0.44 0.29 0.44 0.34 0.62 0.83 0.63 0.49 0.49 0.53 0.49
0.31 0.30 0.35 0.36 0.33 0.36 0.46 0.34 0.47 0.34 0.39 0.47 0.64 0.81 0.79 0.41 0.52 0.44 0.35 0.58 0.54 0.58 0.60 0.49 0.47 0.60 0.57
0.61 0.57 0.50 0.41 0.33 0.32 0.45 0.51 0.54 0.36 0.40 0.43 0.42 0.43 0.46 0.49 0.59 0.33 0.32 0.39 0.62 0.78 0.70 0.61 0.62 0.92 0.80
0.56 0.61 0.66 0.54 0.47 0.37 0.40 0.52 0.52 0.40 0.40 0.38 0.44 0.47 0.39 0.29 0.42 0.58 0.54 0.49 0.65 0.70 0.70 0.90 0.81 0.89 0.70
0.60 0.57 0.61 0.54 0.52 0.48 0.44 0.43 0.36 0.32 0.35 0.36 0.43 0.70 0.86 0.46 0.29 0.55 1.03 0.86 0.64 0.58 0.61 0.69 0.91 1.00 0.71

GFSFLT2_prec_precacc_129.txt.gz
Total_Precipitation_Accumulation
0.93 0.89 0.91 0.91 0.88 0.74 0.62 0.48 0.44 0.48 0.42 0.35 0.28 0.26 0.24 0.24 0.25 0.28 0.31 0.37 0.43 0.57 0.83 1.23 1.23 1.04 1.16
1.27 1.14 0.97 0.75 0.56 0.38 0.25 0.17 0.12 0.21 0.18 0.15 0.16 0.16 0.14 0.15 0.18 0.20 0.23 0.28 0.37 0.51 0.58 0.66 0.78 0.71 0.71
0.54 0.44 0.39 0.34 0.31 0.24 0.18 0.14 0.11 0.18 0.18 0.16 0.17 0.14 0.12 0.13 0.16 0.18 0.22 0.20 0.19 0.22 0.34 0.36 0.39 0.51 0.54
0.45 0.42 0.37 0.30 0.31 0.30 0.28 0.25 0.22 0.19 0.20 0.18 0.20 0.19 0.17 0.15 0.12 0.09 0.08 0.09 0.12 0.16 0.28 0.44 0.42 0.40 0.32
0.61 0.53 0.38 0.28 0.26 0.25 0.26 0.22 0.23 0.19 0.17 0.17 0.19 0.18 0.16 0.18 0.15 0.14 0.14 0.18 0.25 0.30 0.33 0.46 0.60 0.62 0.42
0.59 0.39 0.23 0.24 0.27 0.30 0.40 0.39 0.35 0.16 0.20 0.17 0.14 0.14 0.10 0.10 0.15 0.17 0.18 0.21 0.26 0.31 0.33 0.36 0.47 0.51 0.46
0.14 0.13 0.16 0.21 0.46 0.47 0.36 0.37 0.28 0.13 0.20 0.21 0.15 0.18 0.17 0.19 0.30 0.30 0.30 0.36 0.43 0.44 0.42 0.38 0.35 0.28 0.25
0.07 0.11 0.20 0.24 0.30 0.46 0.46 0.38 0.30 0.19 0.18 0.32 0.12 0.12 0.15 0.14 0.26 0.33 0.35 0.44 0.52 0.52 0.52 0.49 0.44 0.39 0.34
0.14 0.14 0.19 0.27 0.31 0.49 0.57 0.53 0.47 0.23 0.19 0.32 0.22 0.19 0.16 0.16 0.25 0.46 0.47 0.40 0.35 0.33 0.31 0.31 0.35 0.36 0.31
0.15 0.15 0.16 0.17 0.24 0.22 0.39 0.90 0.69 0.60 0.31 0.73 0.56 0.47 0.73 0.28 0.19 0.21 0.31 0.35 0.40 0.37 0.34 0.31 0.31 0.30 0.29
0.13 0.13 0.16 0.21 0.28 0.30 0.34 0.77 1.07 0.76 0.26 1.05 1.15 0.62 0.97 0.55 0.31 0.31 0.37 0.43 0.50 0.46 0.43 0.45 0.42 0.42 0.48
0.11 0.12 0.15 0.18 0.22 0.31 0.43 0.56 0.71 0.99 0.56 0.70 1.39 0.64 1.08 0.75 0.34 0.28 0.31 0.40 0.66 0.79 0.79 0.71 0.65 0.55 0.50
0.13 0.11 0.13 0.20 0.33 0.41 0.35 0.27 0.31 0.45 0.57 0.60 0.91 0.77 0.90 0.76 0.45 0.30 0.44 0.36 0.66 0.88 0.70 0.56 0.54 0.56 0.53
0.31 0.30 0.35 0.36 0.33 0.36 0.46 0.35 0.47 0.34 0.39 0.47 0.64 0.82 0.81 0.42 0.54 0.44 0.36 0.59 0.57 0.62 0.63 0.50 0.47 0.60 0.59
0.61 0.57 0.50 0.41 0.33 0.32 0.45 0.52 0.54 0.36 0.40 0.43 0.43 0.44 0.47 0.51 0.60 0.34 0.34 0.43 0.65 0.83 0.73 0.62 0.62 0.92 0.80
0.56 0.62 0.66 0.54 0.47 0.37 0.41 0.53 0.53 0.40 0.40 0.38 0.45 0.47 0.40 0.30 0.43 0.59 0.56 0.52 0.69 0.76 0.72 0.90 0.81 0.89 0.70
0.60 0.57 0.61 0.54 0.53 0.49 0.44 0.43 0.37 0.32 0.35 0.37 0.44 0.72 0.88 0.47 0.30 0.56 1.03 0.87 0.65 0.60 0.61 0.69 0.91 1.00 0.71

GFSFLT2_prec_precacc_132.txt.gz
Total_Precipitation_Accumulation
1.09 1.03 1.01 0.96 0.90 0.74 0.62 0.48 0.44 0.48 0.42 0.35 0.28 0.26 0.24 0.24 0.25 0.28 0.31 0.38 0.44 0.58 0.85 1.26 1.27 1.07 1.16
1.35 1.20 1.00 0.76 0.56 0.38 0.25 0.17 0.12 0.21 0.18 0.15 0.16 0.16 0.14 0.15 0.19 0.20 0.23 0.28 0.38 0.51 0.60 0.69 0.84 0.80 0.77
0.55 0.44 0.39 0.34 0.31 0.24 0.18 0.14 0.11 0.18 0.18 0.16 0.17 0.14 0.12 0.13 0.16 0.18 0.22 0.20 0.19 0.22 0.35 0.39 0.44 0.60 0.64
0.45 0.42 0.37 0.30 0.31 0.30 0.28 0.25 0.22 0.19 0.20 0.18 0.20 0.19 0.17 0.15 0.12 0.09 0.08 0.09 0.12 0.17 0.29 0.46 0.45 0.47 0.42
0.61 0.53 0.38 0.28 0.26 0.25 0.26 0.22 0.23 0.19 0.17 0.17 0.19 0.18 0.16 0.18 0.15 0.14 0.14 0.18 0.26 0.31 0.35 0.48 0.62 0.67 0.51
0.59 0.39 0.23 0.24 0.27 0.30 0.40 0.39 0.35 0.16 0.20 0.17 0.14 0.14 0.10 0.10 0.15 0.17 0.18 0.21 0.26 0.31 0.35 0.40 0.52 0.56 0.53
0.14 0.13 0.16 0.21 0.46 0.47 0.36 0.38 0.28 0.13 0.20 0.22 0.15 0.18 0.17 0.19 0.30 0.30 0.30 0.36 0.43 0.44 0.42 0.39 0.38 0.31 0.27
0.07 0.11 0.20 0.24 0.31 0.47 0.47 0.38 0.30 0.20 0.18 0.33 0.12 0.12 0.15 0.14 0.26 0.33 0.35 0.44 0.52 0.52 0.52 0.51 0.46 0.43 0.38
0.14 0.14 0.19 0.27 0.32 0.49 0.57 0.54 0.47 0.24 0.19 0.32 0.22 0.19 0.16 0.16 0.25 0.46 0.47 0.40 0.35 0.33 0.31 0.34 0.39 0.43 0.37
0.15 0.15 0.16 0.17 0.24 0.22 0.40 0.91 0.69 0.61 0.31 0.74 0.57 0.47 0.73 0.28 0.19 0.21 0.31 0.35 0.40 0.39 0.38 0.36 0.37 0.33 0.31
0.13 0.13 0.16 0.21 0.28 0.30 0.34 0.77 1.08 0.77 0.26 1.08 1.17 0.63 0.98 0.55 0.31 0.31 0.37 0.43 0.50 0.47 0.47 0.47 0.45 0.45 0.53
0.11 0.12 0.15 0.18 0.22 0.31 0.43 0.57 0.71 1.00 0.56 0.72 1.44 0.65 1.11 0.76 0.34 0.28 0.31 0.40 0.66 0.79 0.80 0.75 0.67 0.56 0.51
0.13 0.11 0.13 0.20 0.33 0.41 0.35 0.27 0.32 0.45 0.57 0.62 0.95 0.79 0.92 0.78 0.46 0.30 0.44 0.36 0.66 0.89 0.73 0.58 0.55 0.57 0.53
0.31 0.30 0.35 0.36 0.33 0.36 0.46 0.35 0.47 0.34 0.39 0.47 0.65 0.83 0.81 0.43 0.54 0.44 0.36 0.60 0.57 0.63 0.64 0.50 0.49 0.61 0.59
0.61 0.57 0.50 0.41 0.33 0.32 0.45 0.52 0.55 0.36 0.40 0.43 0.43 0.44 0.47 0.51 0.60 0.34 0.35 0.43 0.66 0.84 0.74 0.62 0.62 0.92 0.80
0.56 0.62 0.66 0.55 0.47 0.37 0.41 0.53 0.54 0.41 0.41 0.38 0.46 0.48 0.40 0.30 0.43 0.59 0.57 0.53 0.70 0.80 0.75 0.90 0.81 0.89 0.70
0.60 0.58 0.61 0.55 0.53 0.49 0.44 0.44 0.37 0.33 0.36 0.38 0.46 0.73 0.89 0.47 0.30 0.56 1.04 0.88 0.66 0.63 0.63 0.69 0.91 1.00 0.71

GFSFLT2_prec_precacc_135.txt.gz
Total_Precipitation_Accumulation
1.18 1.12 1.12 1.11 1.06 0.88 0.71 0.51 0.45 0.48 0.42 0.35 0.28 0.26 0.24 0.24 0.25 0.28 0.31 0.38 0.44 0.58 0.86 1.27 1.28 1.09 1.20
1.54 1.36 1.13 0.84 0.61 0.41 0.26 0.17 0.12 0.21 0.18 0.15 0.16 0.16 0.14 0.15 0.19 0.21 0.23 0.28 0.38 0.51 0.60 0.69 0.84 0.80 0.80
0.68 0.55 0.46 0.37 0.31 0.24 0.18 0.14 0.11 0.18 0.18 0.16 0.17 0.14 0.12 0.13 0.16 0.18 0.22 0.20 0.19 0.22 0.35 0.39 0.44 0.60 0.66
0.45 0.42 0.37 0.30 0.31 0.30 0.28 0.25 0.22 0.19 0.20 0.18 0.20 0.19 0.17 0.15 0.12 0.09 0.08 0.09 0.12 0.17 0.30 0.47 0.45 0.47 0.44
0.61 0.53 0.38 0.28 0.26 0.25 0.26 0.22 0.23 0.19 0.17 0.17 0.19 0.18 0.16 0.18 0.15 0.14 0.14 0.18 0.26 0.31 0.35 0.48 0.63 0.67 0.52
0.59 0.39 0.23 0.24 0.27 0.30 0.40 0.39 0.35 0.16 0.20 0.17 0.14 0.14 0.10 0.10 0.15 0.17 0.18 0.22 0.26 0.32 0.35 0.40 0.52 0.57 0.54
0.14 0.13 0.16 0.21 0.46 0.47 0.36 0.38 0.28 0.13 0.20 0.22 0.15 0.18 0.17 0.19 0.30 0.30 0.30 0.36 0.43 0.44 0.42 0.39 0.38 0.31 0.28
0.07 0.11 0.20 0.24 0.31 0.47 0.47 0.39 0.30 0.20 0.18 0.33 0.12 0.12 0.15 0.14 0.26 0.33 0.35 0.44 0.52 0.52 0.52 0.51 0.46 0.43 0.39
0.14 0.14 0.19 0.27 0.32 0.49 0.57 0.54 0.47 0.24 0.19 0.33 0.22 0.19 0.16 0.16 0.25 0.46 0.47 0.40 0.35 0.33 0.31 0.34 0.39 0.43 0.39
0.15 0.15 0.16 0.17 0.24 0.22 0.40 0.91 0.70 0.62 0.31 0.75 0.57 0.47 0.74 0.28 0.19 0.21 0.31 0.35 0.40 0.39 0.39 0.38 0.39 0.34 0.33
0.13 0.13 0.16 0.21 0.28 0.30 0.34 0.77 1.09 0.78 0.27 1.12 1.20 0.63 0.99 0.55 0.31 0.31 0.37 0.43 0.50 0.47 0.48 0.49 0.46 0.47 0.56
0.11 0.12 0.15 0.18 0.22 0.31 0.43 0.57 0.72 1.01 0.57 0.74 1.49 0.66 1.13 0.77 0.34 0.28 0.31 0.40 0.66 0.79 0.80 0.75 0.67 0.57 0.52
0.13 0.11 0.13 0.20 0.33 0.41 0.35 0.27 0.32 0.45 0.57 0.62 0.97 0.81 0.94 0.79 0.47 0.31 0.45 0.36 0.66 0.89 0.73 0.58 0.55 0.57 0.53
0.31 0.30 0.35 0.36 0.33 0.36 0.46 0.35 0.47 0.34 0.39 0.47 0.65 0.84 0.82 0.43 0.55 0.45 0.37 0.61 0.57 0.63 0.64 0.50 0.49 0.61 0.59
0.61 0.57 0.50 0.41 0.33 0.32 0.45 0.52 0.55 0.37 0.40 0.43 0.43 0.45 0.48 0.51 0.60 0.34 0.35 0.43 0.66 0.84 0.74 0.62 0.62 0.92 0.80
0.56 0.62 0.66 0.55 0.47 0.37 0.41 0.53 0.54 0.41 0.41 0.38 0.46 0.48 0.40 0.30 0.43 0.59 0.57 0.53 0.70 0.80 0.75 0.90 0.81 0.89 0.70
0.60 0.58 0.62 0.55 0.53 0.49 0.44 0.44 0.37 0.33 0.36 0.38 0.47 0.75 0.90 0.47 0.30 0.57 1.04 0.88 0.67 0.63 0.63 0.69 0.91 1.00 0.72

GFSFLT2_prec_precacc_138.txt.gz
Total_Precipitation_Accumulation
1.21 1.15 1.17 1.15 1.09 0.91 0.76 0.57 0.51 0.54 0.46 0.38 0.29 0.26 0.24 0.24 0.25 0.28 0.31 0.38 0.44 0.58 0.86 1.27 1.28 1.09 1.20
1.59 1.45 1.23 0.93 0.67 0.47 0.33 0.22 0.16 0.22 0.19 0.15 0.16 0.16 0.14 0.15 0.19 0.21 0.23 0.28 0.38 0.51 0.60 0.69 0.84 0.80 0.80
0.75 0.61 0.50 0.40 0.32 0.25 0.19 0.14 0.11 0.18 0.18 0.16 0.17 0.14 0.12 0.13 0.16 0.18 0.22 0.20 0.19 0.22 0.36 0.40 0.45 0.60 0.66
0.46 0.42 0.37 0.30 0.31 0.30 0.28 0.25 0.22 0.19 0.20 0.18 0.20 0.19 0.17 0.15 0.12 0.09 0.08 0.09 0.12 0.17 0.30 0.47 0.46 0.48 0.44
0.61 0.53 0.38 0.28 0.26 0.25 0.26 0.22 0.23 0.19 0.17 0.17 0.19 0.18 0.16 0.18 0.15 0.14 0.14 0.18 0.26 0.32 0.36 0.49 0.63 0.68 0.52
0.59 0.39 0.23 0.24 0.27 0.30 0.40 0.39 0.35 0.16 0.20 0.17 0.14 0.14 0.10 0.10 0.15 0.17 0.18 0.23 0.27 0.32 0.35 0.40 0.52 0.57 0.54
0.14 0.13 0.16 0.21 0.46 0.47 0.36 0.38 0.28 0.13 0.20 0.22 0.15 0.18 0.17 0.19 0.30 0.30 0.31 0.37 0.43 0.44 0.42 0.39 0.38 0.31 0.28
0.07 0.11 0.20 0.24 0.31 0.47 0.47 0.39 0.30 0.20 0.18 0.33 0.12 0.12 0.15 0.14 0.26 0.33 0.36 0.44 0.52 0.52 0.52 0.51 0.47 0.43 0.39
0.14 0.14 0.19 0.27 0.32 0.49 0.57 0.54 0.47 0.24 0.19 0.33 0.23 0.19 0.16 0.16 0.25 0.47 0.47 0.40 0.35 0.33 0.31 0.36 0.40 0.44 0.39
0.15 0.15 0.16 0.17 0.24 0.22 0.40 0.91 0.70 0.62 0.31 0.76 0.57 0.47 0.75 0.28 0.19 0.21 0.31 0.35 0.40 0.39 0.39 0.38 0.40 0.34 0.33
0.13 0.13 0.16 0.21 0.28 0.30 0.34 0.77 1.09 0.79 0.27 1.14 1.22 0.63 1.00 0.56 0.31 0.31 0.37 0.43 0.50 0.47 0.48 0.49 0.47 0.47 0.56
0.11 0.12 0.15 0.18 0.22 0.31 0.43 0.57 0.72 1.01 0.57 0.75 1.53 0.68 1.15 0.78 0.34 0.28 0.31 0.40 0.66 0.79 0.80 0.75 0.67 0.57 0.52
0.13 0.11 0.13 0.20 0.33 0.41 0.35 0.27 0.32 0.45 0.57 0.63 0.99 0.82 0.96 0.82 0.49 0.31 0.45 0.36 0.66 0.89 0.73 0.58 0.55 0.57 0.53
0.31 0.30 0.35 0.36 0.33 0.36 0.46 0.35 0.47 0.34 0.39 0.47 0.65 0.87 0.85 0.44 0.56 0.45 0.37 0.61 0.57 0.63 0.64 0.50 0.49 0.61 0.59
0.61 0.57 0.50 0.41 0.33 0.32 0.46 0.52 0.56 0.37 0.40 0.43 0.43 0.45 0.49 0.52 0.60 0.34 0.35 0.43 0.66 0.84 0.75 0.62 0.62 0.92 0.80
0.56 0.62 0.67 0.55 0.47 0.37 0.41 0.54 0.55 0.41 0.41 0.38 0.46 0.48 0.40 0.30 0.43 0.59 0.57 0.53 0.70 0.80 0.75 0.91 0.81 0.89 0.70
0.60 0.58 0.62 0.55 0.53 0.49 0.44 0.44 0.38 0.33 0.36 0.39 0.48 0.77 0.91 0.47 0.30 0.57 1.05 0.88 0.67 0.64 0.63 0.69 0.91 1.00 0.72

GFSFLT2_prec_precacc_141.txt.gz
Total_Precipitation_Accumulation
1.23 1.17 1.18 1.16 1.11 0.92 0.78 0.58 0.54 0.59 0.49 0.40 0.30 0.27 0.24 0.24 0.25 0.28 0.31 0.38 0.44 0.58 0.86 1.27 1.28 1.09 1.20
1.60 1.47 1.26 0.97 0.70 0.49 0.35 0.23 0.17 0.25 0.20 0.16 0.16 0.16 0.14 0.15 0.19 0.21 0.23 0.28 0.38 0.51 0.60 0.69 0.84 0.80 0.80
0.76 0.62 0.52 0.42 0.33 0.25 0.19 0.14 0.11 0.18 0.18 0.16 0.17 0.14 0.12 0.13 0.16 0.18 0.22 0.20 0.19 0.22 0.36 0.40 0.45 0.61 0.67
0.47 0.43 0.37 0.30 0.31 0.30 0.28 0.25 0.22 0.19 0.20 0.18 0.20 0.19 0.17 0.15 0.12 0.09 0.08 0.09 0.13 0.17 0.31 0.48 0.47 0.49 0.45
0.62 0.53 0.38 0.28 0.26 0.25 0.26 0.22 0.23 0.19 0.17 0.17 0.19 0.18 0.16 0.18 0.15 0.14 0.14 0.19 0.27 0.33 0.37 0.49 0.63 0.68 0.52
0.59 0.39 0.23 0.24 0.27 0.30 0.40 0.39 0.35 0.16 0.20 0.17 0.14 0.14 0.10 0.10 0.15 0.17 0.19 0.23 0.29 0.32 0.35 0.41 0.53 0.57 0.54
0.14 0.13 0.16 0.21 0.46 0.47 0.36 0.38 0.28 0.13 0.20 0.22 0.15 0.18 0.17 0.19 0.30 0.30 0.31 0.37 0.43 0.44 0.42 0.39 0.38 0.32 0.29
0.07 0.11 0.20 0.24 0.31 0.47 0.47 0.39 0.30 0.20 0.18 0.33 0.12 0.12 0.15 0.14 0.26 0.33 0.36 0.44 0.52 0.53 0.53 0.52 0.48 0.44 0.40
0.14 0.14 0.19 0.27 0.32 0.49 0.57 0.54 0.47 0.24 0.19 0.33 0.23 0.19 0.16 0.16 0.25 0.47 0.47 0.40 0.35 0.33 0.32 0.36 0.41 0.44 0.40
0.15 0.15 0.16 0.17 0.24 0.22 0.40 0.91 0.71 0.62 0.31 0.76 0.57 0.48 0.75 0.28 0.19 0.21 0.31 0.35 0.40 0.39 0.40 0.39 0.40 0.35 0.33
0.13 0.13 0.16 0.21 0.28 0.30 0.34 0.77 1.09 0.79 0.27 1.15 1.23 0.63 1.01 0.56 0.31 0.31 0.37 0.43 0.50 0.47 0.48 0.49 0.47 0.48 0.56
0.11 0.12 0.15 0.18 0.22 0.31 0.43 0.57 0.72 1.01 0.57 0.75 1.55 0.70 1.18 0.79 0.34 0.28 0.31 0.40 0.66 0.79 0.80 0.75 0.67 0.57 0.52
0.13 0.11 0.13 0.20 0.33 0.41 0.35 0.27 0.32 0.45 0.57 0.63 1.01 0.84 0.98 0.83 0.49 0.31 0.45 0.36 0.66 0.89 0.73 0.58 0.55 0.57 0.53
0.31 0.30 0.35 0.36 0.33 0.36 0.46 0.35 0.47 0.34 0.39 0.47 0.65 0.88 0.86 0.44 0.57 0.45 0.37 0.62 0.57 0.63 0.64 0.50 0.49 0.61 0.59
0.61 0.57 0.50 0.41 0.33 0.32 0.46 0.52 0.56 0.37 0.40 0.43 0.43 0.45 0.49 0.52 0.60 0.34 0.35 0.44 0.66 0.84 0.75 0.62 0.62 0.92 0.80
0.56 0.62 0.67 0.55 0.47 0.37 0.41 0.54 0.55 0.41 0.41 0.38 0.46 0.48 0.40 0.30 0.43 0.59 0.57 0.53 0.70 0.80 0.75 0.91 0.81 0.89 0.70
0.60 0.58 0.62 0.55 0.53 0.49 0.44 0.44 0.38 0.33 0.36 0.39 0.48 0.78 0.91 0.47 0.30 0.57 1.06 0.88 0.67 0.64 0.63 0.69 0.91 1.00 0.73

GFSFLT2_prec_precacc_144.txt.gz
Total_Precipitation_Accumulation
1.25 1.18 1.18 1.16 1.11 0.93 0.78 0.58 0.55 0.62 0.50 0.41 0.32 0.28 0.25 0.24 0.25 0.28 0.31 0.38 0.44 0.58 0.86 1.27 1.28 1.09 1.20
1.60 1.47 1.26 0.97 0.70 0.50 0.35 0.24 0.17 0.25 0.20 0.16 0.17 0.16 0.14 0.15 0.19 0.21 0.23 0.28 0.38 0.51 0.60 0.69 0.84 0.80 0.80
0.76 0.62 0.53 0.42 0.33 0.26 0.19 0.15 0.11 0.18 0.18 0.16 0.17 0.14 0.12 0.13 0.16 0.18 0.22 0.20 0.19 0.22 0.36 0.40 0.45 0.61 0.67
0.47 0.43 0.38 0.30 0.31 0.30 0.28 0.25 0.22 0.19 0.20 0.18 0.20 0.19 0.17 0.15 0.12 0.09 0.08 0.09 0.13 0.18 0.31 0.48 0.47 0.49 0.45
0.62 0.53 0.38 0.28 0.26 0.25 0.26 0.22 0.23 0.19 0.17 0.17 0.19 0.18 0.16 0.18 0.15 0.14 0.14 0.19 0.27 0.33 0.37 0.50 0.64 0.68 0.53
0.59 0.39 0.23 0.24 0.27 0.30 0.40 0.39 0.35 0.16 0.20 0.17 0.14 0.14 0.10 0.10 0.15 0.17 0.19 0.23 0.29 0.33 0.35 0.41 0.53 0.57 0.55
0.14 0.13 0.16 0.21 0.46 0.47 0.36 0.38 0.28 0.13 0.20 0.22 0.15 0.18 0.17 0.19 0.30 0.30 0.31 0.38 0.44 0.44 0.42 0.39 0.38 0.32 0.30
0.07 0.11 0.20 0.24 0.31 0.47 0.47 0.39 0.30 0.20 0.18 0.33 0.12 0.12 0.15 0.14 0.26 0.33 0.36 0.44 0.52 0.53 0.53 0.52 0.48 0.45 0.41
0.14 0.14 0.19 0.27 0.32 0.49 0.57 0.54 0.47 0.24 0.19 0.33 0.23 0.19 0.16 0.16 0.25 0.47 0.47 0.40 0.35 0.33 0.32 0.37 0.41 0.45 0.40
0.15 0.15 0.16 0.17 0.24 0.22 0.40 0.91 0.71 0.62 0.31 0.76 0.57 0.48 0.75 0.28 0.19 0.21 0.31 0.35 0.40 0.39 0.40 0.39 0.41 0.35 0.34
0.13 0.13 0.16 0.21 0.28 0.30 0.34 0.77 1.09 0.79 0.27 1.15 1.23 0.64 1.01 0.56 0.31 0.31 0.37 0.43 0.50 0.47 0.48 0.49 0.47 0.48 0.56
0.11 0.12 0.15 0.18 0.22 0.31 0.43 0.57 0.72 1.01 0.57 0.75 1.56 0.71 1.19 0.80 0.35 0.28 0.31 0.40 0.66 0.79 0.80 0.75 0.67 0.57 0.52
0.13 0.11 0.13 0.20 0.33 0.41 0.35 0.27 0.32 0.45 0.57 0.63 1.01 0.84 0.99 0.84 0.50 0.31 0.45 0.36 0.66 0.89 0.73 0.58 0.55 0.57 0.53
0.31 0.30 0.35 0.36 0.33 0.36 0.46 0.35 0.47 0.34 0.39 0.47 0.65 0.88 0.86 0.44 0.57 0.46 0.37 0.62 0.58 0.63 0.64 0.50 0.49 0.61 0.59
0.61 0.57 0.50 0.41 0.33 0.32 0.46 0.52 0.56 0.37 0.40 0.43 0.43 0.45 0.49 0.52 0.61 0.34 0.36 0.44 0.66 0.84 0.75 0.62 0.62 0.92 0.80
0.56 0.62 0.67 0.55 0.47 0.37 0.41 0.54 0.55 0.41 0.41 0.38 0.46 0.48 0.40 0.30 0.43 0.59 0.57 0.53 0.71 0.80 0.75 0.91 0.81 0.89 0.70
0.60 0.58 0.62 0.55 0.53 0.49 0.44 0.44 0.38 0.33 0.36 0.39 0.48 0.78 0.92 0.47 0.30 0.57 1.06 0.89 0.67 0.64 0.63 0.69 0.91 1.00 0.73

GFSFLT2_prec_precacc_147.txt.gz
Total_Precipitation_Accumulation
1.26 1.19 1.18 1.16 1.11 0.93 0.78 0.58 0.55 0.63 0.51 0.41 0.32 0.28 0.25 0.24 0.25 0.28 0.31 0.38 0.44 0.58 0.86 1.27 1.28 1.09 1.20
1.61 1.48 1.27 0.97 0.70 0.50 0.35 0.24 0.17 0.25 0.20 0.16 0.17 0.16 0.14 0.15 0.19 0.21 0.23 0.28 0.38 0.51 0.60 0.69 0.84 0.80 0.80
0.76 0.62 0.53 0.42 0.33 0.26 0.19 0.15 0.11 0.18 0.18 0.16 0.17 0.14 0.12 0.13 0.16 0.18 0.22 0.20 0.19 0.22 0.36 0.40 0.45 0.61 0.67
0.47 0.43 0.38 0.30 0.31 0.30 0.28 0.25 0.22 0.19 0.20 0.18 0.20 0.19 0.17 0.15 0.12 0.09 0.08 0.09 0.13 0.18 0.31 0.49 0.48 0.49 0.45
0.62 0.53 0.38 0.28 0.26 0.25 0.26 0.22 0.23 0.19 0.17 0.17 0.19 0.18 0.16 0.18 0.15 0.14 0.14 0.19 0.27 0.33 0.38 0.50 0.64 0.68 0.53
0.59 0.39 0.23 0.24 0.27 0.30 0.40 0.39 0.35 0.16 0.20 0.17 0.14 0.14 0.10 0.10 0.15 0.17 0.19 0.23 0.30 0.33 0.35 0.41 0.53 0.58 0.55
0.14 0.13 0.16 0.21 0.46 0.47 0.36 0.38 0.28 0.13 0.20 0.22 0.15 0.18 0.17 0.19 0.30 0.30 0.31 0.38 0.44 0.44 0.42 0.39 0.38 0.32 0.30
0.07 0.11 0.20 0.24 0.31 0.47 0.47 0.39 0.30 0.20 0.18 0.33 0.12 0.12 0.15 0.14 0.26 0.33 0.36 0.44 0.52 0.53 0.53 0.52 0.48 0.45 0.41
0.14 0.14 0.19 0.27 0.32 0.49 0.57 0.54 0.47 0.24 0.19 0.33 0.23 0.19 0.16 0.16 0.25 0.47 0.47 0.40 0.35 0.33 0.32 0.37 0.41 0.46 0.41
0.15 0.15 0.16 0.17 0.24 0.22 0.40 0.91 0.71 0.62 0.31 0.76 0.57 0.48 0.75 0.28 0.19 0.21 0.31 0.35 0.40 0.39 0.40 0.39 0.41 0.35 0.34
0.13 0.13 0.16 0.21 0.28 0.30 0.34 0.77 1.09 0.79 0.27 1.15 1.23 0.64 1.01 0.57 0.31 0.31 0.37 0.43 0.50 0.47 0.48 0.49 0.47 0.48 0.56
0.11 0.12 0.15 0.18 0.22 0.31 0.43 0.57 0.72 1.01 0.57 0.75 1.56 0.71 1.19 0.81 0.35 0.28 0.31 0.40 0.66 0.79 0.80 0.75 0.68 0.57 0.52
0.13 0.11 0.13 0.20 0.33 0.41 0.35 0.27 0.32 0.45 0.57 0.63 1.01 0.85 1.00 0.85 0.50 0.31 0.45 0.36 0.66 0.89 0.73 0.58 0.55 0.57 0.53
0.31 0.30 0.35 0.36 0.33 0.36 0.46 0.35 0.47 0.34 0.39 0.47 0.65 0.88 0.86 0.44 0.58 0.46 0.37 0.62 0.58 0.63 0.64 0.50 0.49 0.61 0.59
0.61 0.57 0.50 0.41 0.33 0.32 0.46 0.52 0.56 0.37 0.40 0.43 0.43 0.46 0.49 0.52 0.61 0.34 0.36 0.44 0.66 0.84 0.75 0.62 0.62 0.92 0.80
0.56 0.62 0.67 0.55 0.47 0.37 0.41 0.54 0.55 0.41 0.41 0.38 0.46 0.48 0.40 0.30 0.43 0.59 0.57 0.53 0.71 0.80 0.75 0.92 0.81 0.89 0.70
0.60 0.58 0.62 0.55 0.53 0.49 0.44 0.44 0.38 0.33 0.36 0.39 0.48 0.78 0.93 0.48 0.30 0.57 1.07 0.89 0.67 0.64 0.63 0.69 0.92 1.00 0.73

GFSFLT2_prec_precacc_150.txt.gz
Total_Precipitation_Accumulation
1.26 1.19 1.18 1.17 1.11 0.93 0.78 0.58 0.55 0.63 0.51 0.41 0.32 0.28 0.25 0.24 0.25 0.28 0.31 0.38 0.44 0.58 0.86 1.27 1.28 1.09 1.20
1.61 1.48 1.28 0.98 0.71 0.50 0.35 0.24 0.17 0.25 0.20 0.16 0.17 0.16 0.14 0.15 0.19 0.21 0.23 0.28 0.38 0.51 0.60 0.69 0.84 0.80 0.80
0.76 0.63 0.53 0.42 0.33 0.26 0.19 0.15 0.11 0.18 0.18 0.16 0.17 0.14 0.12 0.13 0.16 0.18 0.22 0.20 0.19 0.22 0.36 0.40 0.45 0.61 0.67
0.47 0.43 0.38 0.30 0.31 0.30 0.28 0.25 0.22 0.19 0.20 0.18 0.20 0.19 0.17 0.15 0.12 0.09 0.08 0.09 0.13 0.18 0.31 0.49 0.48 0.50 0.45
0.62 0.53 0.38 0.28 0.26 0.25 0.26 0.22 0.23 0.19 0.17 0.17 0.19 0.18 0.16 0.18 0.15 0.14 0.14 0.19 0.27 0.34 0.39 0.51 0.64 0.69 0.53
0.59 0.39 0.23 0.24 0.27 0.30 0.40 0.39 0.35 0.16 0.20 0.17 0.14 0.14 0.10 0.10 0.15 0.17 0.19 0.24 0.30 0.33 0.35 0.41 0.53 0.58 0.55
0.14 0.13 0.16 0.21 0.46 0.47 0.36 0.38 0.28 0.13 0.20 0.22 0.15 0.18 0.17 0.19 0.30 0.30 0.31 0.39 0.44 0.44 0.42 0.39 0.38 0.33 0.30
0.07 0.11 0.20 0.24 0.31 0.47 0.47 0.39 0.30 0.20 0.18 0.33 0.12 0.12 0.15 0.14 0.26 0.33 0.36 0.44 0.52 0.53 0.53 0.52 0.48 0.45 0.42
0.14 0.14 0.19 0.27 0.32 0.49 0.57 0.54 0.47 0.24 0.19 0.33 0.23 0.19 0.16 0.16 0.25 0.47 0.47 0.40 0.35 0.33 0.32 0.37 0.42 0.46 0.41
0.15 0.15 0.16 0.17 0.24 0.22 0.40 0.91 0.71 0.62 0.31 0.76 0.57 0.48 0.75 0.28 0.19 0.21 0.31 0.35 0.40 0.39 0.40 0.39 0.42 0.36 0.34
0.13 0.13 0.16 0.21 0.28 0.30 0.34 0.77 1.09 0.79 0.27 1.15 1.23 0.64 1.01 0.57 0.31 0.31 0.37 0.43 0.50 0.47 0.48 0.49 0.48 0.49 0.57
0.11 0.12 0.15 0.18 0.22 0.31 0.43 0.57 0.72 1.01 0.57 0.75 1.56 0.71 1.20 0.81 0.35 0.28 0.31 0.40 0.66 0.79 0.80 0.76 0.68 0.57 0.52
0.13 0.11 0.13 0.20 0.33 0.41 0.35 0.27 0.32 0.45 0.57 0.63 1.01 0.85 1.00 0.85 0.50 0.31 0.45 0.36 0.66 0.89 0.73 0.58 0.55 0.57 0.53
0.31 0.30 0.35 0.36 0.33 0.36 0.46 0.35 0.47 0.34 0.39 0.47 0.65 0.88 0.87 0.44 0.58 0.46 0.37 0.62 0.58 0.63 0.64 0.50 0.49 0.61 0.59
0.61 0.57 0.50 0.41 0.33 0.32 0.46 0.52 0.56 0.37 0.40 0.43 0.43 0.46 0.49 0.53 0.61 0.35 0.36 0.44 0.66 0.84 0.75 0.62 0.62 0.92 0.80
0.56 0.62 0.67 0.55 0.47 0.37 0.41 0.54 0.55 0.41 0.41 0.38 0.46 0.49 0.40 0.30 0.43 0.59 0.57 0.53 0.71 0.80 0.75 0.92 0.81 0.89 0.70
0.60 0.58 0.62 0.55 0.54 0.49 0.44 0.44 0.38 0.33 0.36 0.39 0.48 0.78 0.93 0.48 0.30 0.57 1.07 0.89 0.67 0.64 0.63 0.69 0.92 1.00 0.73

GFSFLT2_prec_precacc_153.txt.gz
Total_Precipitation_Accumulation
1.26 1.19 1.18 1.17 1.12 0.93 0.78 0.58 0.55 0.63 0.51 0.41 0.32 0.28 0.25 0.24 0.25 0.28 0.31 0.38 0.44 0.58 0.86 1.27 1.28 1.09 1.20
1.61 1.49 1.28 0.98 0.71 0.50 0.35 0.24 0.17 0.25 0.20 0.16 0.17 0.16 0.14 0.15 0.19 0.21 0.23 0.28 0.38 0.51 0.60 0.69 0.84 0.80 0.80
0.76 0.63 0.53 0.42 0.33 0.26 0.19 0.15 0.11 0.18 0.18 0.16 0.17 0.14 0.12 0.13 0.16 0.18 0.22 0.20 0.19 0.22 0.36 0.40 0.45 0.62 0.68
0.47 0.43 0.38 0.30 0.31 0.30 0.28 0.25 0.22 0.19 0.20 0.18 0.20 0.19 0.17 0.15 0.12 0.09 0.08 0.09 0.13 0.18 0.31 0.49 0.48 0.50 0.45
0.62 0.53 0.38 0.28 0.26 0.25 0.26 0.22 0.23 0.19 0.17 0.17 0.19 0.18 0.16 0.18 0.15 0.14 0.14 0.19 0.27 0.34 0.39 0.51 0.64 0.69 0.53
0.59 0.39 0.23 0.24 0.27 0.30 0.40 0.39 0.35 0.16 0.20 0.17 0.14 0.14 0.10 0.10 0.15 0.17 0.19 0.24 0.31 0.33 0.35 0.41 0.53 0.58 0.55
0.14 0.13 0.16 0.21 0.46 0.47 0.36 0.38 0.28 0.13 0.20 0.22 0.15 0.18 0.17 0.19 0.30 0.30 0.31 0.39 0.44 0.44 0.42 0.39 0.38 0.33 0.31
0.07 0.11 0.20 0.24 0.31 0.47 0.47 0.39 0.30 0.20 0.18 0.33 0.12 0.12 0.15 0.14 0.26 0.33 0.36 0.44 0.52 0.53 0.53 0.52 0.48 0.46 0.42
0.14 0.14 0.19 0.27 0.32 0.49 0.57 0.54 0.47 0.24 0.19 0.33 0.23 0.19 0.16 0.16 0.25 0.47 0.47 0.40 0.35 0.33 0.32 0.37 0.42 0.47 0.41
0.15 0.15 0.16 0.17 0.24 0.22 0.40 0.91 0.71 0.62 0.31 0.76 0.57 0.48 0.75 0.28 0.19 0.21 0.31 0.35 0.40 0.39 0.40 0.40 0.42 0.36 0.34
0.13 0.13 0.16 0.21 0.28 0.30 0.34 0.77 1.09 0.79 0.27 1.15 1.23 0.64 1.01 0.57 0.31 0.31 0.37 0.43 0.50 0.47 0.48 0.49 0.48 0.49 0.57
0.11 0.12 0.15 0.18 0.22 0.31 0.43 0.57 0.72 1.01 0.57 0.75 1.56 0.71 1.20 0.81 0.35 0.28 0.31 0.40 0.66 0.79 0.80 0.76 0.68 0.57 0.52
0.13 0.11 0.13 0.20 0.33 0.41 0.35 0.27 0.32 0.45 0.57 0.63 1.01 0.85 1.00 0.85 0.51 0.31 0.46 0.36 0.66 0.89 0.73 0.58 0.55 0.57 0.53
0.31 0.30 0.35 0.36 0.33 0.36 0.46 0.35 0.47 0.34 0.39 0.47 0.65 0.88 0.87 0.44 0.59 0.46 0.37 0.62 0.58 0.63 0.64 0.50 0.49 0.61 0.59
0.61 0.57 0.50 0.41 0.33 0.32 0.46 0.52 0.56 0.37 0.40 0.43 0.43 0.46 0.49 0.53 0.61 0.35 0.36 0.44 0.66 0.84 0.75 0.62 0.62 0.92 0.80
0.56 0.62 0.67 0.55 0.47 0.37 0.41 0.54 0.55 0.41 0.41 0.38 0.46 0.49 0.40 0.30 0.43 0.59 0.57 0.53 0.71 0.80 0.75 0.92 0.82 0.89 0.70
0.60 0.58 0.62 0.55 0.54 0.49 0.44 0.44 0.38 0.33 0.36 0.39 0.48 0.78 0.94 0.48 0.30 0.57 1.07 0.89 0.67 0.64 0.63 0.70 0.92 1.00 0.73

GFSFLT2_prec_precacc_156.txt.gz
Total_Precipitation_Accumulation
1.27 1.20 1.19 1.17 1.12 0.93 0.78 0.58 0.55 0.63 0.51 0.41 0.32 0.28 0.25 0.24 0.25 0.28 0.31 0.38 0.44 0.58 0.86 1.27 1.28 1.09 1.20
1.61 1.49 1.28 0.98 0.71 0.50 0.35 0.24 0.17 0.25 0.20 0.16 0.17 0.16 0.14 0.15 0.19 0.21 0.23 0.28 0.38 0.51 0.60 0.69 0.84 0.80 0.80
0.76 0.63 0.53 0.42 0.33 0.26 0.19 0.15 0.11 0.18 0.18 0.16 0.17 0.14 0.12 0.13 0.16 0.18 0.22 0.20 0.19 0.22 0.36 0.40 0.45 0.62 0.68
0.47 0.43 0.38 0.30 0.31 0.30 0.28 0.25 0.22 0.19 0.20 0.18 0.20 0.19 0.17 0.15 0.12 0.09 0.08 0.09 0.13 0.18 0.31 0.49 0.48 0.50 0.46
0.62 0.53 0.38 0.28 0.26 0.25 0.26 0.22 0.23 0.19 0.17 0.17 0.19 0.18 0.16 0.18 0.15 0.14 0.14 0.19 0.27 0.34 0.39 0.51 0.64 0.69 0.53
0.59 0.39 0.23 0.24 0.27 0.30 0.40 0.39 0.35 0.16 0.20 0.17 0.14 0.14 0.10 0.10 0.15 0.17 0.19 0.24 0.31 0.33 0.35 0.41 0.53 0.58 0.55
0.14 0.13 0.16 0.21 0.46 0.47 0.36 0.38 0.28 0.13 0.20 0.22 0.15 0.18 0.17 0.19 0.30 0.30 0.31 0.39 0.44 0.44 0.42 0.39 0.38 0.33 0.31
0.07 0.11 0.20 0.24 0.31 0.47 0.47 0.39 0.30 0.20 0.18 0.33 0.12 0.12 0.15 0.14 0.26 0.33 0.36 0.44 0.52 0.53 0.53 0.52 0.49 0.46 0.43
0.14 0.14 0.19 0.27 0.32 0.49 0.57 0.54 0.47 0.24 0.19 0.33 0.23 0.19 0.16 0.16 0.25 0.47 0.47 0.40 0.35 0.33 0.32 0.37 0.43 0.47 0.42
0.15 0.15 0.16 0.17 0.24 0.22 0.40 0.91 0.71 0.62 0.31 0.76 0.57 0.48 0.75 0.28 0.19 0.21 0.31 0.35 0.40 0.39 0.40 0.40 0.42 0.36 0.34
0.13 0.13 0.16 0.21 0.28 0.30 0.34 0.77 1.09 0.79 0.27 1.15 1.23 0.64 1.01 0.57 0.31 0.31 0.37 0.43 0.50 0.47 0.48 0.49 0.48 0.49 0.57
0.11 0.12 0.15 0.18 0.22 0.31 0.43 0.57 0.72 1.01 0.57 0.75 1.56 0.71 1.20 0.81 0.35 0.28 0.31 0.40 0.66 0.79 0.80 0.76 0.68 0.57 0.52
0.13 0.11 0.13 0.20 0.33 0.41 0.35 0.27 0.32 0.45 0.57 0.63 1.01 0.85 1.00 0.86 0.51 0.31 0.46 0.36 0.66 0.89 0.73 0.58 0.55 0.57 0.53
0.31 0.30 0.35 0.36 0.33 0.36 0.46 0.35 0.47 0.34 0.39 0.47 0.65 0.88 0.87 0.44 0.59 0.46 0.37 0.62 0.58 0.63 0.64 0.50 0.49 0.61 0.59
0.61 0.57 0.50 0.41 0.33 0.32 0.46 0.52 0.56 0.37 0.40 0.43 0.43 0.46 0.49 0.53 0.61 0.35 0.36 0.44 0.66 0.84 0.75 0.62 0.62 0.92 0.80
0.56 0.62 0.67 0.55 0.47 0.37 0.41 0.54 0.55 0.41 0.41 0.38 0.46 0.49 0.40 0.30 0.43 0.59 0.57 0.53 0.71 0.80 0.75 0.93 0.82 0.89 0.70
0.60 0.58 0.62 0.55 0.54 0.49 0.44 0.44 0.38 0.33 0.36 0.39 0.48 0.79 0.94 0.48 0.30 0.57 1.07 0.89 0.67 0.64 0.63 0.70 0.92 1.00 0.73

GFSFLT2_prec_precacc_159.txt.gz
Total_Precipitation_Accumulation
1.27 1.20 1.19 1.17 1.12 0.93 0.78 0.58 0.55 0.63 0.51 0.41 0.32 0.28 0.25 0.24 0.25 0.28 0.31 0.38 0.44 0.58 0.86 1.27 1.28 1.09 1.20
1.61 1.49 1.28 0.98 0.71 0.50 0.35 0.24 0.17 0.25 0.20 0.16 0.17 0.16 0.14 0.15 0.19 0.21 0.23 0.28 0.38 0.51 0.60 0.69 0.84 0.80 0.80
0.76 0.63 0.53 0.42 0.33 0.26 0.19 0.15 0.11 0.18 0.18 0.16 0.17 0.14 0.12 0.13 0.16 0.18 0.22 0.20 0.19 0.22 0.36 0.40 0.45 0.62 0.68
0.47 0.43 0.38 0.30 0.31 0.30 0.28 0.25 0.22 0.19 0.20 0.18 0.20 0.19 0.17 0.15 0.12 0.09 0.08 0.09 0.13 0.18 0.31 0.49 0.48 0.50 0.46
0.62 0.53 0.38 0.28 0.26 0.25 0.26 0.22 0.23 0.19 0.17 0.17 0.19 0.18 0.16 0.18 0.15 0.14 0.14 0.19 0.27 0.34 0.39 0.51 0.64 0.69 0.53
0.59 0.39 0.23 0.24 0.27 0.30 0.40 0.39 0.35 0.16 0.20 0.17 0.14 0.14 0.10 0.10 0.15 0.17 0.19 0.24 0.31 0.33 0.35 0.41 0.53 0.58 0.55
0.14 0.13 0.16 0.21 0.46 0.47 0.36 0.38 0.28 0.13 0.20 0.22 0.15 0.18 0.17 0.19 0.30 0.30 0.31 0.39 0.44 0.44 0.42 0.39 0.38 0.33 0.31
0.07 0.11 0.20 0.24 0.31 0.47 0.47 0.39 0.30 0.20 0.18 0.33 0.12 0.12 0.15 0.14 0.26 0.33 0.36 0.44 0.52 0.53 0.53 0.52 0.49 0.46 0.43
0.14 0.14 0.19 0.27 0.32 0.49 0.57 0.54 0.47 0.24 0.19 0.33 0.23 0.19 0.16 0.16 0.25 0.47 0.47 0.40 0.35 0.33 0.32 0.37 0.43 0.48 0.42
0.15 0.15 0.16 0.17 0.24 0.22 0.40 0.91 0.71 0.62 0.31 0.76 0.57 0.48 0.75 0.28 0.19 0.21 0.31 0.35 0.40 0.39 0.40 0.40 0.42 0.36 0.34
0.13 0.13 0.16 0.21 0.28 0.30 0.34 0.77 1.09 0.79 0.27 1.15 1.23 0.64 1.01 0.57 0.31 0.31 0.37 0.43 0.50 0.47 0.48 0.49 0.48 0.49 0.57
0.11 0.12 0.15 0.18 0.22 0.31 0.43 0.57 0.72 1.01 0.57 0.75 1.56 0.71 1.20 0.81 0.35 0.28 0.31 0.40 0.66 0.79 0.80 0.76 0.68 0.57 0.52
0.13 0.11 0.13 0.20 0.33 0.41 0.35 0.27 0.32 0.45 0.57 0.63 1.01 0.85 1.00 0.86 0.51 0.31 0.46 0.36 0.66 0.89 0.73 0.58 0.55 0.57 0.53
0.31 0.30 0.35 0.36 0.33 0.36 0.46 0.35 0.47 0.34 0.39 0.47 0.65 0.88 0.87 0.44 0.59 0.46 0.37 0.62 0.58 0.63 0.64 0.50 0.49 0.61 0.59
0.61 0.57 0.50 0.41 0.33 0.32 0.46 0.52 0.56 0.37 0.40 0.43 0.43 0.46 0.49 0.53 0.61 0.35 0.36 0.44 0.66 0.84 0.75 0.62 0.62 0.92 0.80
0.56 0.62 0.67 0.55 0.47 0.37 0.41 0.54 0.55 0.41 0.41 0.38 0.46 0.49 0.40 0.30 0.43 0.59 0.57 0.53 0.71 0.80 0.75 0.93 0.82 0.89 0.70
0.61 0.59 0.63 0.56 0.54 0.50 0.44 0.44 0.38 0.33 0.36 0.39 0.48 0.79 0.94 0.48 0.30 0.57 1.07 0.89 0.67 0.64 0.63 0.70 0.92 1.00 0.73